Belvidere, Illinois, United States (61008)
Lat: 42.26N, Lon: 88.84W
Wx Zone: ILZ004
Local Info
Past Weather Observations for Sunday, April 19, 2015

NOTE: This archive is for the closest National Weather Service station to Belvidere. Information may differ from the station used for current weather conditions.

Click here for Long-term Archive

Time Weather Temperature Dewpoint Humidity Pressure Winds Precip Visibility
23:54
Overcast
52°F / 11°C 48°F / 9°C 88% 29.33 in
(993 mb)
NNW 6.9 mph
(NNW 11 kph)
0.00 in
(0.00 mm)
8SM
23:24
Overcast
Light Rain
52°F / 11°C 48°F / 9°C 88% 29.36 in
(994 mb)
NNW 6.9 mph
(NNW 11 kph)
0.00 in
(0.00 mm)
6SM
23:05
Overcast
Light Rain
52°F / 11°C 46°F / 8°C 82% 29.36 in
(994 mb)
N 10.4 mph
(N 17 kph)
0.00 in
(0.00 mm)
6SM
22:54
Overcast
Light Rain
52°F / 11°C 46°F / 8°C 82% 29.36 in
(994 mb)
N 12.7 mph
(N 20 kph)
0.01 in
(0.25 mm)
6SM
21:54
Overcast
Light Rain
52°F / 11°C 48°F / 9°C 88% 29.39 in
(995 mb)
N 8.1 mph
(N 13 kph)
0.02 in
(0.51 mm)
6SM
21:28
Overcast
Light Rain
52°F / 11°C 48°F / 9°C 88% 29.42 in
(996 mb)
N 8.1 mph
(N 13 kph)
0.02 in
(0.51 mm)
5SM
21:16
Overcast
Light Rain
52°F / 11°C 48°F / 9°C 88% 29.42 in
(996 mb)
N 8.1 mph
(N 13 kph)
0.01 in
(0.25 mm)
5SM
20:54
Overcast
Light Rain
52°F / 11°C 48°F / 9°C 88% 29.42 in
(996 mb)
N 8.1 mph
(N 13 kph)
0.03 in
(0.76 mm)
5SM
20:09
Overcast
Light Rain
54°F / 12°C 50°F / 10°C 88% 29.44 in
(997 mb)
N 5.8 mph
(N 9 kph)
0.02 in
(0.51 mm)
5SM
19:54
Overcast
Light Rain
54°F / 12°C 48°F / 9°C 82% 29.44 in
(997 mb)
NNE 8.1 mph
(NNE 13 kph)
0.04 in
(1.02 mm)
5SM
19:20
Overcast
Light Rain
54°F / 12°C 48°F / 9°C 82% 29.47 in
(998 mb)
NE 5.8 mph
(NE 9 kph)
0.02 in
(0.51 mm)
6SM
18:54
Overcast
Light Rain
54°F / 12°C 48°F / 9°C 82% 29.47 in
(998 mb)
ENE 5.8 mph
(ENE 9 kph)
0.04 in
(1.02 mm)
6SM
17:54
Overcast
Light Rain
55°F / 13°C 48°F / 9°C 77% 29.47 in
(998 mb)
E 11.5 mph
(E 19 kph)
0.01 in
(0.25 mm)
7SM
16:54
Overcast
Light Rain
61°F / 16°C 46°F / 8°C 59% 29.47 in
(998 mb)
E 10.4 mph
(E 17 kph)
0.00 in
(0.00 mm)
10SM
15:54
Overcast
Light Rain
68°F / 20°C 43°F / 6°C 40% 29.5 in
(999 mb)
E 8.1 mph
(E 13 kph)
0.00 in
(0.00 mm)
10SM
14:54
Overcast
70°F / 21°C 43°F / 6°C 38% 29.53 in
(1000 mb)
E 10.4 mph
(E 17 kph)
0.00 in
(0.00 mm)
10SM
13:54
Overcast
72°F / 22°C 43°F / 6°C 36% 29.56 in
(1001 mb)
SE 11.5 mph
(SE 19 kph)
- 10SM
12:54
Overcast
73°F / 23°C 43°F / 6°C 33% 29.62 in
(1003 mb)
SE 16.1 mph
(SE 26 kph)
- 10SM
11:54
Mostly Cloudy
75°F / 24°C 43°F / 6°C 31% 29.65 in
(1004 mb)
SSE 13.8 mph
(SSE 22 kph)
- 10SM
10:54
Mostly Cloudy
72°F / 22°C 41°F / 5°C 33% 29.71 in
(1006 mb)
ESE 12.7 mph
(ESE 20 kph)
- 10SM
09:54
Overcast
70°F / 21°C 41°F / 5°C 35% 29.74 in
(1007 mb)
SE 15 mph
(SE 24 kph)
- 10SM
08:54
Mostly Cloudy
66°F / 19°C 39°F / 4°C 37% 29.77 in
(1008 mb)
SE 15 mph
(SE 24 kph)
- 10SM
07:54
Mostly Cloudy
61°F / 16°C 37°F / 3°C 42% 29.8 in
(1009 mb)
ESE 12.7 mph
(ESE 20 kph)
- 10SM
06:54
Mostly Cloudy
55°F / 13°C 34°F / 1°C 44% 29.83 in
(1010 mb)
E 11.5 mph
(E 19 kph)
- 10SM
Time Weather Temperature Dewpoint Humidity Pressure Winds Precip Visibility


Weather for websites

WeatherForYou.com, LLC is not responsible for any damages or problems caused by this service. Current weather conditions are obtained from the closest station including government and personal stations which may have varying degrees of accuracy. Weather forecasts are derived from the NOAA NDFD. Like all things, this site belongs to Jesus Christ... He just trusts us to maintain it. If you have any questions or comments email webmaster@weatherforyou.com

Copyright © 2015, WeatherForYou.com LLC. All rights reserved.